Weather History for Kansas City International, MO

Change the Weather History Date:

Thursday, March 20, 2014

  Actual Average Record
Temperature  
Mean Temperature 52 °F 46 °F  
Max Temperature 71 °F 57 °F 82 °F (1953)
Min Temperature 33 °F 35 °F 8 °F (1906)
Degree Days  
Heating Degree Days 13 19  
Month to date heating degree days 528 456  
Since 1 July heating degree days 5094 4501  
Cooling Degree Days 0 0  
Month to date cooling degree days 0 0  
Year to date cooling degree days 0 0  
Growing Degree Days 2 (Base 50)    
Moisture  
Dew Point 25 °F    
Average Humidity 43    
Maximum Humidity 69    
Minimum Humidity 17    
Precipitation  
Precipitation 0.00 in 0.08 in 1.48 in (1962)
Month to date precipitation 1.34 1.40  
Year to date precipitation 3.09 3.93  
Snow  
Snow 0.00 in 0.10 in 7.30 in (2010)
Month to date snowfall 3.1 1.5  
Since 1 July snowfall 25.7 17.7  
Snow Depth 0.00 in    
Sea Level Pressure  
Sea Level Pressure 29.96 in    
Wind  
Wind Speed 11 mph (SW)    
Max Wind Speed 32 mph    
Max Gust Speed 40 mph    
Visibility 10 miles    
Events      
T = Trace of Precipitation, MM = Missing Value Source: NWS Daily Summary

Daily Weather History Graph

Daily Weather History Graph

Search for Another Location

Airport:

Trip Planner

Search our weather history database for the weather conditions in past years. The results will help you decide how hot, cold, wet, or windy it might be!

Date:

Astronomy

Mar. 20, 2014 Rise Set
Actual Time 7:22 AM CDT 7:30 PM CDT
Civil Twilight 6:55 AM CDT 7:57 PM CDT
Nautical Twilight 6:24 AM CDT 8:29 PM CDT
Astronomical Twilight 5:52 AM CDT 9:00 PM CDT
Moon 11:50 PM CDT (3/20) 9:30 AM CDT (3/20)
Length of Visible Light 13h 02m
Length of Day
12h 08m
Waning Gibbous, 84% of the Moon is Illuminated
Mar 20
Waning Gibbous
Mar 23
Last Quarter
Mar 30
New
Apr 7
First Quarter
Apr 15
Full

Hourly Weather History & Observations

Time (CDT) Temp. Windchill Dew Point Humidity Pressure Visibility Wind Dir Wind Speed Gust Speed Precip Events Conditions
12:53 AM 35.1 °F 27.9 °F 23.0 °F 61% 30.10 in 10.0 mi South 9.2 mph - N/A   Clear
1:53 AM 36.0 °F 29.6 °F 23.0 °F 59% 30.09 in 10.0 mi South 8.1 mph - N/A   Clear
2:53 AM 37.0 °F 31.0 °F 25.0 °F 62% 30.08 in 10.0 mi SSW 8.1 mph - N/A   Clear
3:53 AM 37.0 °F 31.0 °F 25.0 °F 62% 30.07 in 10.0 mi SSW 8.1 mph - N/A   Clear
4:53 AM 36.0 °F 30.3 °F 24.1 °F 62% 30.07 in 10.0 mi SSW 6.9 mph - N/A   Clear
5:53 AM 34.0 °F 28.0 °F 24.1 °F 67% 30.08 in 10.0 mi South 6.9 mph - N/A   Partly Cloudy
6:53 AM 34.0 °F 27.2 °F 24.1 °F 67% 30.07 in 10.0 mi SSW 8.1 mph - N/A   Scattered Clouds
7:53 AM 37.0 °F 29.8 °F 26.1 °F 65% 30.06 in 10.0 mi SSW 10.4 mph - N/A   Partly Cloudy
8:53 AM 43.0 °F 36.4 °F 27.0 °F 53% 30.06 in 10.0 mi SW 12.7 mph - N/A   Clear
9:53 AM 48.9 °F - 27.0 °F 43% 30.05 in 10.0 mi WSW 9.2 mph - N/A   Clear
10:53 AM 52.0 °F - 27.0 °F 38% 30.04 in 10.0 mi SW 12.7 mph - N/A   Clear
11:53 AM 57.9 °F - 28.0 °F 32% 30.00 in 10.0 mi SW 11.5 mph - N/A   Clear
12:53 PM 64.9 °F - 26.1 °F 23% 29.96 in 10.0 mi SSW 16.1 mph 25.3 mph N/A   Partly Cloudy
1:53 PM 68.0 °F - 25.0 °F 20% 29.91 in 10.0 mi SW 21.9 mph 29.9 mph N/A   Scattered Clouds
2:53 PM 70.0 °F - 23.0 °F 17% 29.86 in 10.0 mi SW 23.0 mph 33.4 mph N/A   Mostly Cloudy
3:53 PM 70.0 °F - 24.1 °F 18% 29.83 in 10.0 mi SW 18.4 mph 33.4 mph N/A   Partly Cloudy
4:53 PM 70.0 °F - 23.0 °F 17% 29.81 in 10.0 mi SW 24.2 mph 34.5 mph N/A   Partly Cloudy
5:53 PM 69.1 °F - 25.0 °F 19% 29.81 in 10.0 mi SW 19.6 mph 26.5 mph N/A   Partly Cloudy
6:53 PM 66.0 °F - 21.9 °F 19% 29.82 in 10.0 mi SW 11.5 mph - N/A   Scattered Clouds
7:53 PM 63.0 °F - 23.0 °F 22% 29.83 in 10.0 mi WSW 5.8 mph - N/A   Scattered Clouds
8:53 PM 60.1 °F - 26.1 °F 27% 29.84 in 10.0 mi SSW 6.9 mph - N/A   Scattered Clouds
9:53 PM 60.1 °F - 25.0 °F 26% 29.85 in 10.0 mi SW 4.6 mph - N/A   Clear
10:53 PM 55.0 °F - 25.0 °F 31% 29.84 in 10.0 mi SW 3.5 mph - N/A   Mostly Cloudy
11:53 PM 50.0 °F - 28.0 °F 43% 29.85 in 10.0 mi South 6.9 mph - N/A   Mostly Cloudy